Weather in Kalutara

Sri Lanka     6°35′05″N   79°57′46″E
temp.,
°C
wind,
m/s
gust,
m/s
humid.,
%
clouds,
%
prec.,
mm/h
press.,
hPa
HPBL,
m
17 april, sat
sat1723:30+26ene2284100 7.9 1012103
02:30+26sse2385100 0.3 1010222
05:30+26sse2485100 0.3 1011362
08:30+28s347899 0.0 1013679
11:30+30sw3368100 0.1 10121014
14:30+29sw337271 1.9 1010620
17:30+28sw3478100 5.3 1010428
20:30+27ssw238187 1.7 1013305
18 april, sun
sun1823:30+26s228496 4.8 1013275
02:30+26sw2385100 8.9 1011282
05:30+26ssw2386100 18.8 1012192
08:30+25sse6891100 5.3 1016485
11:30+28ssw3471100 5.3 1014552
14:30+28sw4571100 0.0 1010772
17:30+28sw2378100 0.1 1011396
20:30+27sw128094 0.2 1013410
19 april, mon
mon1923:30+27sw1282100 0.4 1012351
02:30+27w2380100 0.9 1010416
05:30+26ssw1282100 1.1 1011436
08:30+29sw237464 0.0 1013646
11:30+30wsw446897 0.1 10111090
14:30+30wsw447017 0.3 1009909
17:30+29w457681 0.6 1009634
20:30+27wsw3483100 0.7 1010380
20 april, tue
tue2023:30+27wsw3483100 1.3 1011406
02:30+27wsw3484100 0.6 1008375
05:30+27sw2384100 1.0 1009371
08:30+29sw3377100 0.6 1011792
11:30+30wsw3370100 0.9 10101015
14:30+30wsw4472100 0.5 1008914
17:30+28wsw357987 2.7 1008483
20:30+27sw2483100 2.2 1010328
21 april, wed
wed2123:30+27wsw2384100 3.4 1011366
02:30+26sw1283100 0.8 1009391
05:30+26s228547 0.9 1010397
08:30+28ssw237741 0.6 1012578
11:30+30sw4367100 1.1 10111086
14:30+30sw4468100 0.1 10091013
17:30+28sw4576100 0.6 1009592
20:30+27sw248193 1.2 1011423